Time,TemperatureF,DewpointF,PressureIn,WindDirection,WindDirectionDegrees,WindSpeedMPH,WindSpeedGustMPH,Humidity,HourlyPrecipIn,Conditions,Clouds,dailyrainin,SoftwareType,DateUTC
2013-08-03 00:02:00,66.9,61.2,29.95,ENE,64,0.0,11.0,82,0.00,,,0.14,VWS V14.00,2013-08-03 05:02:00,
2013-08-03 00:07:00,66.7,61.0,29.95,ENE,66,0.0,5.0,82,0.00,,,0.00,VWS V14.00,2013-08-03 05:07:00,
2013-08-03 00:12:00,66.5,61.2,29.95,NE,44,0.0,9.0,83,0.00,,,0.00,VWS V14.00,2013-08-03 05:12:00,
2013-08-03 00:17:00,66.4,61.1,29.95,NE,56,0.0,9.0,83,0.00,,,0.00,VWS V14.00,2013-08-03 05:17:00,
2013-08-03 00:22:00,66.2,60.9,29.96,ENE,74,6.0,9.0,83,0.00,,,0.00,VWS V14.00,2013-08-03 05:22:00,
2013-08-03 00:27:00,66.0,61.0,29.96,ENE,63,0.0,9.0,84,0.00,,,0.00,VWS V14.00,2013-08-03 05:27:00,
2013-08-03 00:32:00,65.9,60.9,29.96,East,88,0.0,9.0,84,0.00,,,0.00,VWS V14.00,2013-08-03 05:32:00,
2013-08-03 00:37:00,65.7,60.7,29.96,East,81,0.0,6.0,84,0.00,,,0.00,VWS V14.00,2013-08-03 05:37:00,
2013-08-03 00:42:00,65.6,60.6,29.96,ENE,66,2.0,9.0,84,0.00,,,0.00,VWS V14.00,2013-08-03 05:42:00,
2013-08-03 00:47:00,65.4,60.8,29.97,ENE,59,0.0,9.0,85,0.00,,,0.00,VWS V14.00,2013-08-03 05:47:00,
2013-08-03 00:52:00,65.4,60.8,29.97,ENE,70,0.0,9.0,85,0.00,,,0.00,VWS V14.00,2013-08-03 05:52:00,
2013-08-03 00:57:00,65.2,60.6,29.97,ENE,57,5.0,9.0,85,0.00,,,0.00,VWS V14.00,2013-08-03 05:57:00,
2013-08-03 01:02:00,65.2,60.6,29.97,ENE,67,0.0,9.0,85,0.00,,,0.00,VWS V14.00,2013-08-03 06:02:00,
2013-08-03 01:07:00,65.1,60.5,29.96,ENE,65,0.0,0.0,85,0.00,,,0.00,VWS V14.00,2013-08-03 06:07:00,
2013-08-03 01:12:00,65.0,60.4,29.96,East,88,2.0,2.0,85,0.00,,,0.00,VWS V14.00,2013-08-03 06:12:00,
2013-08-03 01:17:00,64.9,60.6,29.96,NNE,26,0.0,5.0,86,0.00,,,0.00,VWS V14.00,2013-08-03 06:17:00,
2013-08-03 01:22:00,64.8,60.5,29.96,ENE,61,0.0,5.0,86,0.00,,,0.00,VWS V14.00,2013-08-03 06:22:00,
2013-08-03 01:27:00,64.7,60.4,29.96,ENE,74,0.0,5.0,86,0.00,,,0.00,VWS V14.00,2013-08-03 06:27:00,
2013-08-03 01:32:00,64.6,60.3,29.96,ENE,75,5.0,6.0,86,0.00,,,0.00,VWS V14.00,2013-08-03 06:32:00,
2013-08-03 01:37:00,64.5,60.2,29.96,East,98,0.0,1.0,86,0.00,,,0.00,VWS V14.00,2013-08-03 06:37:00,
2013-08-03 01:42:00,64.4,60.1,29.96,NNE,16,3.0,5.0,86,0.00,,,0.00,VWS V14.00,2013-08-03 06:42:00,
2013-08-03 01:47:00,64.3,60.0,29.96,NE,40,0.0,5.0,86,0.00,,,0.00,VWS V14.00,2013-08-03 06:47:00,
2013-08-03 01:52:00,64.2,59.9,29.96,ENE,59,0.0,5.0,86,0.00,,,0.00,VWS V14.00,2013-08-03 06:52:00,
2013-08-03 01:57:00,64.1,60.2,29.96,ENE,69,0.0,5.0,87,0.00,,,0.00,VWS V14.00,2013-08-03 06:57:00,
2013-08-03 02:02:00,64.0,60.1,29.96,ENE,78,0.0,5.0,87,0.00,,,0.00,VWS V14.00,2013-08-03 07:02:00,
2013-08-03 02:07:00,63.9,60.0,29.97,ENE,70,0.0,1.0,87,0.00,,,0.00,VWS V14.00,2013-08-03 07:07:00,
2013-08-03 02:12:00,63.8,59.9,29.96,ENE,59,5.0,6.0,87,0.00,,,0.00,VWS V14.00,2013-08-03 07:12:00,
2013-08-03 02:17:00,63.8,59.9,29.97,ENE,67,0.0,6.0,87,0.00,,,0.00,VWS V14.00,2013-08-03 07:17:00,
2013-08-03 02:22:00,63.8,59.9,29.96,ENE,71,0.0,6.0,87,0.00,,,0.00,VWS V14.00,2013-08-03 07:22:00,
2013-08-03 02:27:00,63.7,59.8,29.96,ENE,67,1.0,6.0,87,0.00,,,0.00,VWS V14.00,2013-08-03 07:27:00,
2013-08-03 02:32:00,63.7,59.8,29.96,East,86,0.0,6.0,87,0.00,,,0.00,VWS V14.00,2013-08-03 07:32:00,
2013-08-03 02:37:00,63.7,59.8,29.96,North,11,0.0,0.0,87,0.00,,,0.00,VWS V14.00,2013-08-03 07:37:00,
2013-08-03 02:42:00,63.6,59.7,29.97,ENE,69,0.0,0.0,87,0.00,,,0.00,VWS V14.00,2013-08-03 07:42:00,
2013-08-03 02:47:00,63.6,59.7,29.97,East,86,0.0,5.0,87,0.00,,,0.00,VWS V14.00,2013-08-03 07:47:00,
2013-08-03 02:52:00,63.6,59.7,29.97,ENE,78,4.0,5.0,87,0.00,,,0.00,VWS V14.00,2013-08-03 07:52:00,
2013-08-03 02:57:00,63.5,59.6,29.97,ENE,76,5.0,6.0,87,0.00,,,0.00,VWS V14.00,2013-08-03 07:57:00,
2013-08-03 03:02:00,63.5,59.6,29.98,East,80,0.0,6.0,87,0.00,,,0.00,VWS V14.00,2013-08-03 08:02:00,
2013-08-03 03:07:00,63.5,59.6,29.98,NE,47,0.0,0.0,87,0.00,,,0.00,VWS V14.00,2013-08-03 08:07:00,
2013-08-03 03:12:00,63.5,59.6,29.98,ENE,67,0.0,2.0,87,0.00,,,0.00,VWS V14.00,2013-08-03 08:12:00,
2013-08-03 03:17:00,63.4,59.5,29.98,ENE,64,2.0,3.0,87,0.00,,,0.00,VWS V14.00,2013-08-03 08:17:00,
2013-08-03 03:22:00,63.4,59.5,29.98,ENE,76,0.0,4.0,87,0.00,,,0.00,VWS V14.00,2013-08-03 08:22:00,
2013-08-03 03:27:00,63.5,59.6,29.98,ENE,70,0.0,4.0,87,0.00,,,0.00,VWS V14.00,2013-08-03 08:27:00,
2013-08-03 03:32:00,63.5,59.6,29.98,NNE,29,0.0,5.0,87,0.00,,,0.00,VWS V14.00,2013-08-03 08:32:00,
2013-08-03 03:37:00,63.5,59.6,29.98,NNE,30,0.0,1.0,87,0.00,,,0.00,VWS V14.00,2013-08-03 08:37:00,
2013-08-03 03:42:00,63.6,59.7,29.97,NNE,33,0.0,4.0,87,0.00,,,0.00,VWS V14.00,2013-08-03 08:42:00,
2013-08-03 03:47:00,63.6,59.7,29.98,ENE,59,0.0,4.0,87,0.00,,,0.00,VWS V14.00,2013-08-03 08:47:00,
2013-08-03 03:52:00,63.6,59.7,29.98,NE,55,0.0,4.0,87,0.00,,,0.00,VWS V14.00,2013-08-03 08:52:00,
2013-08-03 03:57:00,63.7,59.8,29.98,NE,54,0.0,4.0,87,0.00,,,0.00,VWS V14.00,2013-08-03 08:57:00,
2013-08-03 04:02:00,63.7,59.8,29.98,NE,53,0.0,4.0,87,0.00,,,0.00,VWS V14.00,2013-08-03 09:02:00,
2013-08-03 04:07:00,63.7,59.8,29.98,NNE,31,0.0,5.0,87,0.00,,,0.00,VWS V14.00,2013-08-03 09:07:00,
2013-08-03 04:12:00,63.7,59.8,29.98,East,83,2.0,8.0,87,0.00,,,0.00,VWS V14.00,2013-08-03 09:12:00,
2013-08-03 04:17:00,63.7,59.8,29.98,NE,36,3.0,8.0,87,0.00,,,0.00,VWS V14.00,2013-08-03 09:17:00,
2013-08-03 04:22:00,63.7,59.4,29.98,NE,50,3.0,8.0,86,0.00,,,0.00,VWS V14.00,2013-08-03 09:22:00,
2013-08-03 04:27:00,63.7,59.4,29.98,ENE,71,0.0,8.0,86,0.00,,,0.00,VWS V14.00,2013-08-03 09:27:00,
2013-08-03 04:32:00,63.6,59.3,29.98,ENE,61,0.0,8.0,86,0.00,,,0.00,VWS V14.00,2013-08-03 09:32:00,
2013-08-03 04:37:00,63.6,59.3,29.97,North,11,1.0,4.0,86,0.00,,,0.00,VWS V14.00,2013-08-03 09:37:00,
2013-08-03 04:42:00,63.5,59.2,29.97,ESE,121,0.0,5.0,86,0.00,,,0.00,VWS V14.00,2013-08-03 09:42:00,
2013-08-03 04:47:00,63.4,59.2,29.97,NE,53,0.0,9.0,86,0.00,,,0.00,VWS V14.00,2013-08-03 09:47:00,
2013-08-03 04:52:00,63.4,58.8,29.97,ENE,61,0.0,9.0,85,0.00,,,0.00,VWS V14.00,2013-08-03 09:52:00,
2013-08-03 04:57:00,63.2,58.6,29.97,ENE,74,0.0,9.0,85,0.00,,,0.00,VWS V14.00,2013-08-03 09:57:00,
2013-08-03 05:02:00,63.1,58.5,29.97,ENE,77,2.0,9.0,85,0.00,,,0.00,VWS V14.00,2013-08-03 10:02:00,
2013-08-03 05:07:00,63.1,58.5,29.97,NE,49,0.0,0.0,85,0.00,,,0.00,VWS V14.00,2013-08-03 10:07:00,
2013-08-03 05:12:00,63.0,58.4,29.97,ENE,63,3.0,7.0,85,0.00,,,0.00,VWS V14.00,2013-08-03 10:12:00,
2013-08-03 05:17:00,62.9,58.3,29.97,NE,48,0.0,7.0,85,0.00,,,0.00,VWS V14.00,2013-08-03 10:17:00,
2013-08-03 05:22:00,62.8,58.2,29.97,ENE,67,2.0,7.0,85,0.00,,,0.00,VWS V14.00,2013-08-03 10:22:00,
2013-08-03 05:27:00,62.7,58.1,29.98,ENE,76,0.0,7.0,85,0.00,,,0.00,VWS V14.00,2013-08-03 10:27:00,
2013-08-03 05:32:00,62.6,58.0,29.98,East,94,4.0,7.0,85,0.00,,,0.00,VWS V14.00,2013-08-03 10:32:00,
2013-08-03 05:37:00,62.6,58.0,29.99,East,99,3.0,4.0,85,0.00,,,0.00,VWS V14.00,2013-08-03 10:37:00,
2013-08-03 05:42:00,62.6,58.0,29.99,East,90,3.0,4.0,85,0.00,,,0.00,VWS V14.00,2013-08-03 10:42:00,
2013-08-03 05:47:00,62.5,57.9,29.99,East,91,2.0,5.0,85,0.00,,,0.00,VWS V14.00,2013-08-03 10:47:00,
2013-08-03 05:52:00,62.5,57.9,29.99,East,91,0.0,5.0,85,0.00,,,0.00,VWS V14.00,2013-08-03 10:52:00,
2013-08-03 05:57:00,62.4,57.8,29.99,East,90,0.0,5.0,85,0.00,,,0.00,VWS V14.00,2013-08-03 10:57:00,
2013-08-03 06:02:00,62.3,57.7,29.99,NNE,32,0.0,5.0,85,0.00,,,0.00,VWS V14.00,2013-08-03 11:02:00,
2013-08-03 06:07:00,62.3,57.7,29.99,ENE,61,5.0,5.0,85,0.00,,,0.00,VWS V14.00,2013-08-03 11:07:00,
2013-08-03 06:12:00,62.3,57.7,29.99,NE,46,0.0,5.0,85,0.00,,,0.00,VWS V14.00,2013-08-03 11:12:00,
2013-08-03 06:17:00,62.2,57.6,29.99,ENE,59,0.0,5.0,85,0.00,,,0.00,VWS V14.00,2013-08-03 11:17:00,
2013-08-03 06:22:00,62.1,57.5,29.99,ENE,59,3.0,5.0,85,0.00,,,0.00,VWS V14.00,2013-08-03 11:22:00,
2013-08-03 06:27:00,62.1,57.9,30.00,ENE,61,0.0,5.0,86,0.00,,,0.00,VWS V14.00,2013-08-03 11:27:00,
2013-08-03 06:32:00,62.0,57.8,30.00,NE,55,0.0,5.0,86,0.00,,,0.00,VWS V14.00,2013-08-03 11:32:00,
2013-08-03 06:37:00,62.0,57.8,30.00,East,80,0.0,0.0,86,0.00,,,0.00,VWS V14.00,2013-08-03 11:37:00,
2013-08-03 06:42:00,61.8,57.6,30.00,East,81,0.0,10.0,86,0.00,,,0.00,VWS V14.00,2013-08-03 11:42:00,
2013-08-03 06:47:00,61.8,57.6,30.00,East,80,3.0,10.0,86,0.00,,,0.00,VWS V14.00,2013-08-03 11:47:00,
2013-08-03 06:52:00,61.8,57.9,30.00,ENE,69,7.0,10.0,87,0.00,,,0.00,VWS V14.00,2013-08-03 11:52:00,
2013-08-03 06:57:00,61.9,58.0,30.00,East,79,2.0,10.0,87,0.00,,,0.00,VWS V14.00,2013-08-03 11:57:00,
2013-08-03 07:02:00,62.0,58.1,30.00,NNE,25,0.0,10.0,87,0.00,,,0.00,VWS V14.00,2013-08-03 12:02:00,
2013-08-03 07:07:00,62.1,58.2,30.01,ENE,71,0.0,3.0,87,0.00,,,0.00,VWS V14.00,2013-08-03 12:07:00,
2013-08-03 07:12:00,62.3,58.1,30.01,ENE,74,1.0,6.0,86,0.00,,,0.00,VWS V14.00,2013-08-03 12:12:00,
2013-08-03 07:17:00,62.5,58.3,30.01,ENE,60,0.0,6.0,86,0.00,,,0.00,VWS V14.00,2013-08-03 12:17:00,
2013-08-03 07:22:00,62.6,58.4,30.01,ENE,73,6.0,6.0,86,0.00,,,0.00,VWS V14.00,2013-08-03 12:22:00,
2013-08-03 07:27:00,62.6,58.4,30.01,NE,43,2.0,9.0,86,0.00,,,0.00,VWS V14.00,2013-08-03 12:27:00,
2013-08-03 07:32:00,62.7,58.1,30.02,North,360,3.0,9.0,85,0.00,,,0.00,VWS V14.00,2013-08-03 12:32:00,
2013-08-03 07:37:00,62.9,58.7,30.02,ENE,61,0.0,11.0,86,0.00,,,0.00,VWS V14.00,2013-08-03 12:37:00,
2013-08-03 07:42:00,63.1,58.5,30.02,NNE,31,5.0,11.0,85,0.00,,,0.00,VWS V14.00,2013-08-03 12:42:00,
2013-08-03 07:47:00,63.5,58.9,30.02,ENE,72,3.0,11.0,85,0.00,,,0.00,VWS V14.00,2013-08-03 12:47:00,
2013-08-03 07:52:00,63.8,58.9,30.02,ENE,76,2.0,13.0,84,0.00,,,0.00,VWS V14.00,2013-08-03 12:52:00,
2013-08-03 07:57:00,64.0,59.1,30.03,ENE,61,0.0,13.0,84,0.00,,,0.00,VWS V14.00,2013-08-03 12:57:00,
2013-08-03 08:02:00,64.3,59.4,30.03,ENE,67,4.0,13.0,84,0.00,,,0.00,VWS V14.00,2013-08-03 13:02:00,
2013-08-03 08:07:00,64.7,59.4,30.03,ENE,72,6.0,7.0,83,0.00,,,0.00,VWS V14.00,2013-08-03 13:07:00,
2013-08-03 08:12:00,65.0,59.0,30.03,NE,45,2.0,7.0,81,0.00,,,0.00,VWS V14.00,2013-08-03 13:12:00,
2013-08-03 08:17:00,65.3,59.3,30.04,NE,49,5.0,8.0,81,0.00,,,0.00,VWS V14.00,2013-08-03 13:17:00,
2013-08-03 08:22:00,65.6,59.3,30.04,ENE,74,5.0,11.0,80,0.00,,,0.00,VWS V14.00,2013-08-03 13:22:00,
2013-08-03 08:27:00,65.7,58.7,30.04,East,84,4.0,11.0,78,0.00,,,0.00,VWS V14.00,2013-08-03 13:27:00,
2013-08-03 08:32:00,65.7,59.0,30.04,NE,53,10.0,11.0,79,0.00,,,0.00,VWS V14.00,2013-08-03 13:32:00,
2013-08-03 08:37:00,65.7,58.7,30.04,ENE,58,10.0,13.0,78,0.00,,,0.00,VWS V14.00,2013-08-03 13:37:00,
2013-08-03 08:42:00,65.7,58.7,30.04,NE,50,5.0,15.0,78,0.00,,,0.00,VWS V14.00,2013-08-03 13:42:00,
2013-08-03 08:47:00,65.7,58.7,30.04,ENE,70,6.0,15.0,78,0.00,,,0.00,VWS V14.00,2013-08-03 13:47:00,
2013-08-03 08:52:00,65.8,58.8,30.05,ESE,114,0.0,15.0,78,0.00,,,0.00,VWS V14.00,2013-08-03 13:52:00,
2013-08-03 08:57:00,65.9,58.9,30.05,ESE,107,7.0,15.0,78,0.00,,,0.00,VWS V14.00,2013-08-03 13:57:00,
2013-08-03 09:02:00,66.0,59.0,30.06,East,80,10.0,15.0,78,0.00,,,0.00,VWS V14.00,2013-08-03 14:02:00,
2013-08-03 09:07:00,66.1,59.0,30.06,SE,130,6.0,12.0,78,0.00,,,0.00,VWS V14.00,2013-08-03 14:07:00,
2013-08-03 09:12:00,66.1,58.7,30.07,East,80,8.0,13.0,77,0.00,,,0.00,VWS V14.00,2013-08-03 14:12:00,
2013-08-03 09:17:00,66.1,58.3,30.07,East,83,13.0,16.0,76,0.00,,,0.00,VWS V14.00,2013-08-03 14:17:00,
2013-08-03 09:22:00,66.0,58.6,30.07,ENE,57,13.0,17.0,77,0.00,,,0.00,VWS V14.00,2013-08-03 14:22:00,
2013-08-03 09:27:00,65.8,58.4,30.07,East,101,7.0,17.0,77,0.00,,,0.00,VWS V14.00,2013-08-03 14:27:00,
2013-08-03 09:32:00,65.8,58.8,30.07,East,93,10.0,17.0,78,0.00,,,0.00,VWS V14.00,2013-08-03 14:32:00,
2013-08-03 09:37:00,65.9,58.9,30.07,ESE,105,9.0,11.0,78,0.00,,,0.00,VWS V14.00,2013-08-03 14:37:00,
2013-08-03 09:42:00,66.0,59.0,30.07,East,91,6.0,11.0,78,0.00,,,0.00,VWS V14.00,2013-08-03 14:42:00,
2013-08-03 09:47:00,66.0,59.0,30.07,East,101,7.0,12.0,78,0.00,,,0.00,VWS V14.00,2013-08-03 14:47:00,
2013-08-03 09:52:00,66.1,59.0,30.07,East,96,7.0,12.0,78,0.00,,,0.00,VWS V14.00,2013-08-03 14:52:00,
2013-08-03 09:57:00,66.1,58.7,30.07,ENE,65,10.0,12.0,77,0.00,,,0.00,VWS V14.00,2013-08-03 14:57:00,
2013-08-03 10:02:00,66.2,59.2,30.08,East,94,0.0,12.0,78,0.00,,,0.00,VWS V14.00,2013-08-03 15:02:00,
2013-08-03 10:07:00,66.4,59.0,30.08,East,81,3.0,9.0,77,0.00,,,0.00,VWS V14.00,2013-08-03 15:07:00,
2013-08-03 10:12:00,66.5,59.1,30.08,East,97,8.0,13.0,77,0.00,,,0.00,VWS V14.00,2013-08-03 15:12:00,
2013-08-03 10:17:00,66.6,58.8,30.08,ESE,115,6.0,13.0,76,0.00,,,0.00,VWS V14.00,2013-08-03 15:17:00,
2013-08-03 10:22:00,66.7,59.3,30.08,East,88,6.0,13.0,77,0.00,,,0.00,VWS V14.00,2013-08-03 15:22:00,
2013-08-03 10:27:00,66.9,59.1,30.08,East,86,4.0,13.0,76,0.00,,,0.00,VWS V14.00,2013-08-03 15:27:00,
2013-08-03 10:32:00,67.0,59.2,30.08,ENE,74,8.0,13.0,76,0.00,,,0.00,VWS V14.00,2013-08-03 15:32:00,
2013-08-03 10:37:00,67.1,59.3,30.09,East,83,2.0,8.0,76,0.00,,,0.00,VWS V14.00,2013-08-03 15:37:00,
2013-08-03 10:42:00,67.2,59.4,30.09,ENE,68,2.0,9.0,76,0.00,,,0.00,VWS V14.00,2013-08-03 15:42:00,
2013-08-03 10:47:00,67.3,59.1,30.09,East,96,4.0,11.0,75,0.00,,,0.00,VWS V14.00,2013-08-03 15:47:00,
2013-08-03 10:52:00,67.5,59.3,30.09,East,92,10.0,12.0,75,0.00,,,0.00,VWS V14.00,2013-08-03 15:52:00,
2013-08-03 10:57:00,67.6,59.0,30.09,ENE,57,10.0,12.0,74,0.00,,,0.00,VWS V14.00,2013-08-03 15:57:00,
2013-08-03 11:02:00,67.8,59.6,30.09,East,86,0.0,12.0,75,0.00,,,0.00,VWS V14.00,2013-08-03 16:02:00,
2013-08-03 11:07:00,68.2,59.6,30.09,ENE,77,10.0,13.0,74,0.00,,,0.00,VWS V14.00,2013-08-03 16:07:00,
2013-08-03 11:12:00,68.9,59.9,30.09,ENE,57,9.0,13.0,73,0.00,,,0.00,VWS V14.00,2013-08-03 16:12:00,
2013-08-03 11:17:00,69.4,60.4,30.09,NNE,31,6.0,13.0,73,0.00,,,0.00,VWS V14.00,2013-08-03 16:17:00,
2013-08-03 11:22:00,69.7,59.5,30.09,NE,42,8.0,15.0,70,0.00,,,0.00,VWS V14.00,2013-08-03 16:22:00,
2013-08-03 11:26:00,69.7,59.5,30.09,NE,51,6.0,15.0,70,0.00,,,0.00,VWS V14.00,2013-08-03 16:26:00,
2013-08-03 11:32:00,69.6,59.8,30.09,ENE,67,5.0,15.0,71,0.00,,,0.00,VWS V14.00,2013-08-03 16:32:00,
2013-08-03 11:37:00,69.6,59.4,30.09,ENE,63,6.0,9.0,70,0.00,,,0.00,VWS V14.00,2013-08-03 16:37:00,
2013-08-03 11:42:00,69.6,59.8,30.09,ENE,65,4.0,10.0,71,0.00,,,0.00,VWS V14.00,2013-08-03 16:42:00,
2013-08-03 11:47:00,69.7,59.9,30.09,NE,43,4.0,12.0,71,0.00,,,0.00,VWS V14.00,2013-08-03 16:47:00,
2013-08-03 11:52:00,69.9,59.7,30.09,ENE,65,9.0,12.0,70,0.00,,,0.00,VWS V14.00,2013-08-03 16:52:00,
2013-08-03 11:57:00,70.1,59.9,30.09,East,86,0.0,12.0,70,0.00,,,0.00,VWS V14.00,2013-08-03 16:57:00,
2013-08-03 12:02:00,70.5,59.8,30.09,ENE,67,0.0,12.0,69,0.00,,,0.00,VWS V14.00,2013-08-03 17:02:00,
2013-08-03 12:07:00,70.8,59.7,30.09,ENE,68,0.0,7.0,68,0.00,,,0.00,VWS V14.00,2013-08-03 17:07:00,
2013-08-03 12:12:00,70.9,59.8,30.10,NE,47,0.0,12.0,68,0.00,,,0.00,VWS V14.00,2013-08-03 17:12:00,
2013-08-03 12:17:00,71.0,60.3,30.10,East,85,1.0,12.0,69,0.00,,,0.00,VWS V14.00,2013-08-03 17:17:00,
2013-08-03 12:22:00,71.0,59.9,30.10,ENE,77,1.0,12.0,68,0.00,,,0.00,VWS V14.00,2013-08-03 17:22:00,
2013-08-03 12:27:00,71.2,60.1,30.10,ENE,59,0.0,12.0,68,0.00,,,0.00,VWS V14.00,2013-08-03 17:27:00,
2013-08-03 12:32:00,71.5,60.8,30.10,East,82,2.0,12.0,69,0.00,,,0.00,VWS V14.00,2013-08-03 17:32:00,
2013-08-03 12:37:00,71.9,60.4,30.10,ENE,57,2.0,6.0,67,0.00,,,0.00,VWS V14.00,2013-08-03 17:37:00,
2013-08-03 12:42:00,72.1,60.5,30.11,East,81,3.0,9.0,67,0.00,,,0.00,VWS V14.00,2013-08-03 17:42:00,
2013-08-03 12:47:00,72.5,60.9,30.11,NE,53,0.0,9.0,67,0.00,,,0.00,VWS V14.00,2013-08-03 17:47:00,
2013-08-03 12:52:00,72.8,61.2,30.10,East,85,0.0,9.0,67,0.00,,,0.00,VWS V14.00,2013-08-03 17:52:00,
2013-08-03 12:57:00,73.0,61.0,30.11,ENE,76,3.0,9.0,66,0.00,,,0.00,VWS V14.00,2013-08-03 17:57:00,
2013-08-03 13:02:00,73.0,60.5,30.11,SSE,153,4.0,12.0,65,0.00,,,0.00,VWS V14.00,2013-08-03 18:02:00,
2013-08-03 13:07:00,73.1,61.1,30.11,ESE,110,0.0,1.0,66,0.00,,,0.00,VWS V14.00,2013-08-03 18:07:00,
2013-08-03 13:12:00,73.2,61.6,30.11,ENE,71,0.0,6.0,67,0.00,,,0.00,VWS V14.00,2013-08-03 18:12:00,
2013-08-03 13:17:00,73.4,60.9,30.11,ESE,103,0.0,7.0,65,0.00,,,0.00,VWS V14.00,2013-08-03 18:17:00,
2013-08-03 13:22:00,73.7,60.8,30.10,ESE,106,4.0,10.0,64,0.00,,,0.00,VWS V14.00,2013-08-03 18:22:00,
2013-08-03 13:27:00,73.9,61.0,30.10,East,86,4.0,10.0,64,0.00,,,0.00,VWS V14.00,2013-08-03 18:27:00,
2013-08-03 13:32:00,74.8,61.4,30.11,ENE,76,6.0,10.0,63,0.00,,,0.00,VWS V14.00,2013-08-03 18:32:00,
2013-08-03 13:37:00,74.9,61.0,30.11,ENE,59,0.0,9.0,62,0.00,,,0.00,VWS V14.00,2013-08-03 18:37:00,
2013-08-03 13:42:00,75.2,61.8,30.11,NE,53,0.0,9.0,63,0.00,,,0.00,VWS V14.00,2013-08-03 18:42:00,
2013-08-03 13:47:00,75.5,61.6,30.10,NE,51,2.0,9.0,62,0.00,,,0.00,VWS V14.00,2013-08-03 18:47:00,
2013-08-03 13:52:00,75.6,61.2,30.11,ENE,61,0.0,9.0,61,0.00,,,0.00,VWS V14.00,2013-08-03 18:52:00,
2013-08-03 13:57:00,75.7,61.3,30.10,East,79,5.0,9.0,61,0.00,,,0.00,VWS V14.00,2013-08-03 18:57:00,
2013-08-03 14:02:00,75.5,61.1,30.10,ENE,64,0.0,9.0,61,0.00,,,0.00,VWS V14.00,2013-08-03 19:02:00,
2013-08-03 14:07:00,75.5,61.1,30.11,East,81,0.0,8.0,61,0.00,,,0.00,VWS V14.00,2013-08-03 19:07:00,
2013-08-03 14:12:00,75.6,61.7,30.11,ENE,57,0.0,8.0,62,0.00,,,0.00,VWS V14.00,2013-08-03 19:12:00,
2013-08-03 14:17:00,75.7,61.8,30.11,East,80,0.0,8.0,62,0.00,,,0.00,VWS V14.00,2013-08-03 19:17:00,
2013-08-03 14:22:00,75.6,61.7,30.11,NNE,25,0.0,8.0,62,0.00,,,0.00,VWS V14.00,2013-08-03 19:22:00,
2013-08-03 14:27:00,75.5,62.0,30.11,North,10,0.0,8.0,63,0.00,,,0.00,VWS V14.00,2013-08-03 19:27:00,
2013-08-03 14:32:00,75.7,61.8,30.11,NNE,30,0.0,8.0,62,0.00,,,0.00,VWS V14.00,2013-08-03 19:32:00,
2013-08-03 14:37:00,76.0,62.0,30.11,NE,38,0.0,2.0,62,0.00,,,0.00,VWS V14.00,2013-08-03 19:37:00,
2013-08-03 14:42:00,76.1,61.7,30.10,NE,34,0.0,7.0,61,0.00,,,0.00,VWS V14.00,2013-08-03 19:42:00,
2013-08-03 14:47:00,76.2,62.2,30.10,NE,49,0.0,7.0,62,0.00,,,0.00,VWS V14.00,2013-08-03 19:47:00,
2013-08-03 14:52:00,76.4,61.5,30.10,ENE,72,0.0,7.0,60,0.00,,,0.00,VWS V14.00,2013-08-03 19:52:00,
2013-08-03 14:57:00,76.7,61.8,30.10,ENE,70,0.0,7.0,60,0.00,,,0.00,VWS V14.00,2013-08-03 19:57:00,
2013-08-03 15:02:00,76.9,61.5,30.10,NNW,334,0.0,7.0,59,0.00,,,0.00,VWS V14.00,2013-08-03 20:02:00,
2013-08-03 15:07:00,77.0,62.5,30.10,North,5,0.0,0.0,61,0.00,,,0.00,VWS V14.00,2013-08-03 20:07:00,
2013-08-03 15:12:00,77.3,62.3,30.10,ENE,65,0.0,1.0,60,0.00,,,0.00,VWS V14.00,2013-08-03 20:12:00,
2013-08-03 15:17:00,77.6,62.2,30.11,NE,42,0.0,1.0,59,0.00,,,0.00,VWS V14.00,2013-08-03 20:17:00,
2013-08-03 15:22:00,77.7,62.7,30.10,NE,55,0.0,1.0,60,0.00,,,0.00,VWS V14.00,2013-08-03 20:22:00,
2013-08-03 15:27:00,77.6,62.6,30.10,ENE,76,0.0,1.0,60,0.00,,,0.00,VWS V14.00,2013-08-03 20:27:00,
2013-08-03 15:32:00,77.5,63.0,30.09,ESE,102,0.0,2.0,61,0.00,,,0.00,VWS V14.00,2013-08-03 20:32:00,
2013-08-03 15:37:00,77.4,62.9,30.09,ESE,107,2.0,4.0,61,0.00,,,0.00,VWS V14.00,2013-08-03 20:37:00,
2013-08-03 15:42:00,77.4,62.9,30.08,ESE,109,1.0,4.0,61,0.00,,,0.00,VWS V14.00,2013-08-03 20:42:00,
2013-08-03 15:47:00,77.1,62.6,30.07,SE,134,2.0,7.0,61,0.00,,,0.00,VWS V14.00,2013-08-03 20:47:00,
2013-08-03 15:52:00,76.9,62.9,30.06,ESE,111,1.0,7.0,62,0.00,,,0.00,VWS V14.00,2013-08-03 20:52:00,
2013-08-03 15:57:00,76.8,62.3,30.06,SE,128,0.0,11.0,61,0.00,,,0.00,VWS V14.00,2013-08-03 20:57:00,
2013-08-03 16:02:00,76.9,62.9,30.05,ESE,113,0.0,11.0,62,0.00,,,0.00,VWS V14.00,2013-08-03 21:02:00,
2013-08-03 16:07:00,77.3,63.3,30.04,SSE,149,1.0,10.0,62,0.00,,,0.00,VWS V14.00,2013-08-03 21:07:00,
2013-08-03 16:12:00,77.2,62.7,30.05,NE,44,5.0,10.0,61,0.00,,,0.00,VWS V14.00,2013-08-03 21:12:00,
2013-08-03 16:17:00,77.1,63.5,30.04,East,96,0.0,10.0,63,0.00,,,0.00,VWS V14.00,2013-08-03 21:17:00,
2013-08-03 16:22:00,77.1,63.5,30.03,ESE,107,0.0,10.0,63,0.00,,,0.00,VWS V14.00,2013-08-03 21:22:00,
2013-08-03 16:27:00,76.9,62.0,30.03,South,178,7.0,15.0,60,0.00,,,0.00,VWS V14.00,2013-08-03 21:27:00,
2013-08-03 16:32:00,76.7,62.7,30.03,SSE,166,0.0,15.0,62,0.00,,,0.00,VWS V14.00,2013-08-03 21:32:00,
2013-08-03 16:37:00,76.6,63.1,30.02,SE,129,3.0,7.0,63,0.00,,,0.00,VWS V14.00,2013-08-03 21:37:00,
2013-08-03 16:42:00,76.4,62.9,30.01,ESE,110,5.0,13.0,63,0.00,,,0.00,VWS V14.00,2013-08-03 21:42:00,
2013-08-03 16:47:00,76.2,63.1,30.01,ESE,117,3.0,13.0,64,0.00,,,0.00,VWS V14.00,2013-08-03 21:47:00,
2013-08-03 16:52:00,76.2,63.1,30.02,SE,126,2.0,13.0,64,0.00,,,0.00,VWS V14.00,2013-08-03 21:52:00,
2013-08-03 16:57:00,76.4,63.3,30.03,East,95,0.0,13.0,64,0.00,,,0.00,VWS V14.00,2013-08-03 21:57:00,
2013-08-03 17:02:00,76.6,64.0,30.03,East,95,0.0,13.0,65,0.00,,,0.00,VWS V14.00,2013-08-03 22:02:00,
2013-08-03 17:07:00,76.8,64.2,30.03,ENE,71,0.0,6.0,65,0.00,,,0.00,VWS V14.00,2013-08-03 22:07:00,
2013-08-03 17:12:00,76.9,63.8,30.03,NNE,12,0.0,6.0,64,0.00,,,0.00,VWS V14.00,2013-08-03 22:12:00,
2013-08-03 17:17:00,76.7,64.1,30.03,East,82,4.0,7.0,65,0.00,,,0.00,VWS V14.00,2013-08-03 22:17:00,
2013-08-03 17:22:00,76.3,63.2,30.02,ENE,78,3.0,11.0,64,0.00,,,0.00,VWS V14.00,2013-08-03 22:22:00,
2013-08-03 17:27:00,76.1,63.5,30.02,ENE,75,0.0,11.0,65,0.00,,,0.00,VWS V14.00,2013-08-03 22:27:00,
2013-08-03 17:32:00,75.7,64.0,30.01,ESE,109,2.0,11.0,67,0.00,,,0.00,VWS V14.00,2013-08-03 22:32:00,
2013-08-03 17:37:00,75.5,63.8,30.00,ENE,72,4.0,6.0,67,0.00,,,0.00,VWS V14.00,2013-08-03 22:37:00,
2013-08-03 17:42:00,75.2,63.5,30.01,ENE,59,0.0,11.0,67,0.00,,,0.00,VWS V14.00,2013-08-03 22:42:00,
2013-08-03 17:47:00,75.0,64.2,30.02,ENE,63,1.0,11.0,69,0.00,,,0.00,VWS V14.00,2013-08-03 22:47:00,
2013-08-03 17:52:00,75.0,63.7,30.03,NE,44,0.0,11.0,68,0.00,,,0.00,VWS V14.00,2013-08-03 22:52:00,
2013-08-03 17:57:00,75.1,64.2,30.05,North,355,3.0,11.0,69,0.00,,,0.00,VWS V14.00,2013-08-03 22:57:00,
2013-08-03 18:02:00,75.3,64.4,30.05,ENE,57,0.0,11.0,69,0.00,,,0.00,VWS V14.00,2013-08-03 23:02:00,
2013-08-03 18:07:00,75.8,64.5,30.05,NE,40,0.0,5.0,68,0.00,,,0.00,VWS V14.00,2013-08-03 23:07:00,
2013-08-03 18:12:00,76.2,64.9,30.05,North,10,0.0,9.0,68,0.00,,,0.00,VWS V14.00,2013-08-03 23:12:00,
2013-08-03 18:17:00,76.2,64.0,30.05,East,86,4.0,11.0,66,0.00,,,0.00,VWS V14.00,2013-08-03 23:17:00,
2013-08-03 18:22:00,75.9,63.7,30.05,NNE,30,0.0,11.0,66,0.00,,,0.00,VWS V14.00,2013-08-03 23:22:00,
2013-08-03 18:27:00,75.7,64.0,30.06,NE,50,13.0,13.0,67,0.00,,,0.00,VWS V14.00,2013-08-03 23:27:00,
2013-08-03 18:32:00,75.4,63.3,30.06,NE,55,0.0,13.0,66,0.00,,,0.00,VWS V14.00,2013-08-03 23:32:00,
2013-08-03 18:37:00,75.1,63.4,30.05,East,84,0.0,5.0,67,0.00,,,0.00,VWS V14.00,2013-08-03 23:37:00,
2013-08-03 18:42:00,74.9,63.2,30.05,ESE,116,6.0,11.0,67,0.00,,,0.00,VWS V14.00,2013-08-03 23:42:00,
2013-08-03 18:47:00,74.6,62.9,30.05,ENE,58,0.0,11.0,67,0.00,,,0.00,VWS V14.00,2013-08-03 23:47:00,
2013-08-03 18:52:00,74.4,62.7,30.05,East,80,0.0,11.0,67,0.00,,,0.00,VWS V14.00,2013-08-03 23:52:00,
2013-08-03 18:57:00,74.1,62.5,30.06,North,11,0.0,11.0,67,0.00,,,0.00,VWS V14.00,2013-08-03 23:57:00,
2013-08-03 19:02:00,73.8,62.2,30.06,ENE,65,10.0,11.0,67,0.00,,,0.00,VWS V14.00,2013-08-04 00:02:00,
2013-08-03 19:07:00,73.5,61.9,30.06,ENE,65,0.0,7.0,67,0.00,,,0.00,VWS V14.00,2013-08-04 00:07:00,
2013-08-03 19:12:00,73.4,62.2,30.06,NE,50,0.0,7.0,68,0.00,,,0.00,VWS V14.00,2013-08-04 00:12:00,
2013-08-03 19:17:00,73.3,62.1,30.06,East,92,0.0,7.0,68,0.00,,,0.00,VWS V14.00,2013-08-04 00:17:00,
2013-08-03 19:22:00,73.2,62.0,30.07,ENE,69,0.0,7.0,68,0.00,,,0.00,VWS V14.00,2013-08-04 00:22:00,
2013-08-03 19:27:00,73.2,62.0,30.07,East,85,0.0,7.0,68,0.00,,,0.00,VWS V14.00,2013-08-04 00:27:00,
2013-08-03 19:32:00,73.1,61.9,30.07,ENE,68,0.0,7.0,68,0.00,,,0.00,VWS V14.00,2013-08-04 00:32:00,
2013-08-03 19:37:00,72.9,62.1,30.07,ENE,67,0.0,1.0,69,0.00,,,0.00,VWS V14.00,2013-08-04 00:37:00,
2013-08-03 19:42:00,72.8,62.0,30.07,ENE,59,0.0,1.0,69,0.00,,,0.00,VWS V14.00,2013-08-04 00:42:00,
2013-08-03 19:47:00,72.7,62.0,30.08,ENE,73,0.0,1.0,69,0.00,,,0.00,VWS V14.00,2013-08-04 00:47:00,
2013-08-03 19:52:00,72.6,62.3,30.08,ENE,57,0.0,1.0,70,0.00,,,0.00,VWS V14.00,2013-08-04 00:52:00,
2013-08-03 19:57:00,72.5,62.2,30.08,ENE,67,0.0,1.0,70,0.00,,,0.00,VWS V14.00,2013-08-04 00:57:00,
2013-08-03 20:02:00,72.3,62.0,30.08,ENE,75,0.0,1.0,70,0.00,,,0.00,VWS V14.00,2013-08-04 01:02:00,
2013-08-03 20:07:00,72.1,62.2,30.08,ENE,57,0.0,0.0,71,0.00,,,0.00,VWS V14.00,2013-08-04 01:07:00,
2013-08-03 20:12:00,71.9,62.0,30.08,NNE,28,0.0,1.0,71,0.00,,,0.00,VWS V14.00,2013-08-04 01:12:00,
2013-08-03 20:17:00,71.6,61.7,30.08,East,91,0.0,3.0,71,0.00,,,0.00,VWS V14.00,2013-08-04 01:17:00,
2013-08-03 20:22:00,71.3,61.8,30.08,NE,53,3.0,5.0,72,0.00,,,0.00,VWS V14.00,2013-08-04 01:22:00,
2013-08-03 20:27:00,71.1,61.6,30.08,NE,35,0.0,5.0,72,0.00,,,0.00,VWS V14.00,2013-08-04 01:27:00,
2013-08-03 20:32:00,70.8,61.7,30.08,East,82,0.0,5.0,73,0.00,,,0.00,VWS V14.00,2013-08-04 01:32:00,
2013-08-03 20:37:00,70.6,61.9,30.08,NE,48,0.0,0.0,74,0.00,,,0.00,VWS V14.00,2013-08-04 01:37:00,
2013-08-03 20:42:00,70.3,61.2,30.08,NNE,20,0.0,3.0,73,0.00,,,0.00,VWS V14.00,2013-08-04 01:42:00,
2013-08-03 20:47:00,70.2,61.5,30.09,NE,44,0.0,3.0,74,0.00,,,0.00,VWS V14.00,2013-08-04 01:47:00,
2013-08-03 20:52:00,69.9,61.2,30.09,NE,45,0.0,3.0,74,0.00,,,0.00,VWS V14.00,2013-08-04 01:52:00,
2013-08-03 20:57:00,69.8,61.2,30.09,NE,46,0.0,3.0,74,0.00,,,0.00,VWS V14.00,2013-08-04 01:57:00,
2013-08-03 21:02:00,69.5,61.2,30.09,NE,46,0.0,3.0,75,0.00,,,0.00,VWS V14.00,2013-08-04 02:02:00,
2013-08-03 21:07:00,69.3,61.0,30.09,NE,52,0.0,0.0,75,0.00,,,0.00,VWS V14.00,2013-08-04 02:07:00,
2013-08-03 21:12:00,69.1,60.8,30.09,NE,35,0.0,1.0,75,0.00,,,0.00,VWS V14.00,2013-08-04 02:12:00,
2013-08-03 21:17:00,68.9,61.0,30.09,NNE,19,0.0,2.0,76,0.00,,,0.00,VWS V14.00,2013-08-04 02:17:00,
2013-08-03 21:22:00,68.7,60.8,30.09,NE,41,0.0,2.0,76,0.00,,,0.00,VWS V14.00,2013-08-04 02:22:00,
2013-08-03 21:27:00,68.5,60.6,30.09,ENE,73,0.0,2.0,76,0.00,,,0.00,VWS V14.00,2013-08-04 02:27:00,
2013-08-03 21:32:00,68.3,60.5,30.10,NE,56,0.0,2.0,76,0.00,,,0.00,VWS V14.00,2013-08-04 02:32:00,
2013-08-03 21:37:00,68.2,60.3,30.10,NE,50,0.0,0.0,76,0.00,,,0.00,VWS V14.00,2013-08-04 02:37:00,
2013-08-03 21:42:00,68.1,60.3,30.10,North,9,0.0,1.0,76,0.00,,,0.00,VWS V14.00,2013-08-04 02:42:00,
2013-08-03 21:47:00,68.0,60.2,30.10,NE,49,0.0,4.0,76,0.00,,,0.00,VWS V14.00,2013-08-04 02:47:00,
2013-08-03 21:52:00,67.9,60.1,30.10,NE,44,0.0,4.0,76,0.00,,,0.00,VWS V14.00,2013-08-04 02:52:00,
2013-08-03 21:57:00,67.8,60.0,30.11,NE,42,2.0,4.0,76,0.00,,,0.00,VWS V14.00,2013-08-04 02:57:00,
2013-08-03 22:02:00,67.7,60.2,30.11,NE,55,0.0,4.0,77,0.00,,,0.00,VWS V14.00,2013-08-04 03:02:00,
2013-08-03 22:07:00,67.6,60.1,30.11,NE,53,0.0,4.0,77,0.00,,,0.00,VWS V14.00,2013-08-04 03:07:00,
2013-08-03 22:12:00,67.5,60.0,30.12,ENE,61,0.0,4.0,77,0.00,,,0.00,VWS V14.00,2013-08-04 03:12:00,
2013-08-03 22:17:00,67.4,60.0,30.11,ENE,63,0.0,5.0,77,0.00,,,0.00,VWS V14.00,2013-08-04 03:17:00,
2013-08-03 22:22:00,67.4,60.0,30.11,ENE,70,0.0,5.0,77,0.00,,,0.00,VWS V14.00,2013-08-04 03:22:00,
2013-08-03 22:27:00,67.3,59.8,30.11,NNE,32,0.0,5.0,77,0.00,,,0.00,VWS V14.00,2013-08-04 03:27:00,
2013-08-03 22:32:00,67.2,59.8,30.12,NE,45,2.0,6.0,77,0.00,,,0.00,VWS V14.00,2013-08-04 03:32:00,
2013-08-03 22:37:00,67.1,59.7,30.11,NNE,32,0.0,1.0,77,0.00,,,0.00,VWS V14.00,2013-08-04 03:37:00,
2013-08-03 22:42:00,67.0,59.9,30.11,ENE,72,0.0,5.0,78,0.00,,,0.00,VWS V14.00,2013-08-04 03:42:00,
2013-08-03 22:47:00,66.9,59.8,30.11,ENE,65,0.0,5.0,78,0.00,,,0.00,VWS V14.00,2013-08-04 03:47:00,
2013-08-03 22:52:00,66.8,59.7,30.12,ENE,78,0.0,5.0,78,0.00,,,0.00,VWS V14.00,2013-08-04 03:52:00,
2013-08-03 22:57:00,66.7,59.6,30.12,ENE,61,0.0,5.0,78,0.00,,,0.00,VWS V14.00,2013-08-04 03:57:00,
2013-08-03 23:01:00,66.6,59.5,30.12,ENE,57,0.0,5.0,78,0.00,,,0.00,VWS V14.00,2013-08-04 04:01:00,
2013-08-03 23:06:00,66.5,59.4,30.12,ENE,74,0.0,0.0,78,0.00,,,0.00,VWS V14.00,2013-08-04 04:06:00,
2013-08-03 23:11:00,66.4,59.3,30.12,NE,43,0.0,3.0,78,0.00,,,0.00,VWS V14.00,2013-08-04 04:11:00,
2013-08-03 23:16:00,66.3,59.2,30.12,North,5,3.0,5.0,78,0.00,,,0.00,VWS V14.00,2013-08-04 04:16:00,
2013-08-03 23:21:00,66.3,59.2,30.12,East,93,0.0,5.0,78,0.00,,,0.00,VWS V14.00,2013-08-04 04:21:00,
2013-08-03 23:26:00,66.2,59.5,30.12,ENE,57,0.0,5.0,79,0.00,,,0.00,VWS V14.00,2013-08-04 04:26:00,
2013-08-03 23:31:00,66.1,59.4,30.12,NE,45,0.0,5.0,79,0.00,,,0.00,VWS V14.00,2013-08-04 04:31:00,
2013-08-03 23:36:00,66.0,59.3,30.12,ENE,66,0.0,1.0,79,0.00,,,0.00,VWS V14.00,2013-08-04 04:36:00,
2013-08-03 23:41:00,65.9,59.2,30.13,ENE,61,0.0,5.0,79,0.00,,,0.00,VWS V14.00,2013-08-04 04:41:00,
2013-08-03 23:46:00,65.7,59.0,30.13,ENE,68,0.0,5.0,79,0.00,,,0.00,VWS V14.00,2013-08-04 04:46:00,
2013-08-03 23:51:00,65.6,58.9,30.12,ENE,61,0.0,5.0,79,0.00,,,0.00,VWS V14.00,2013-08-04 04:51:00,
2013-08-03 23:56:00,65.5,58.8,30.12,ENE,64,0.0,5.0,79,0.00,,,0.00,VWS V14.00,2013-08-04 04:56:00,